TimeEDT,TemperatureF,Dew PointF,Humidity,Sea Level PressureIn,VisibilityMPH,Wind Direction,Wind SpeedMPH,Gust SpeedMPH,PrecipitationIn,Events,Conditions,WindDirDegrees,DateUTC
12:36 AM,57.2,50.0,77,30.02,10.0,West,11.5,21.9,N/A,,Overcast,270,2012-10-05 04:36:00
12:55 AM,57.2,48.2,72,30.01,10.0,WSW,11.5,-,N/A,,Overcast,250,2012-10-05 04:55:00
1:15 AM,57.2,50.0,77,30.02,10.0,WSW,11.5,-,N/A,,Overcast,250,2012-10-05 05:15:00
1:36 AM,-9999,-9999,N/A,-9999,10.0,WSW,11.5,-,N/A,,Overcast,250,2012-10-05 05:36:00
1:55 AM,55.4,48.2,77,30.02,10.0,WSW,10.4,-,N/A,,Mostly Cloudy,250,2012-10-05 05:55:00
2:17 AM,55.4,46.4,72,30.02,10.0,WSW,11.5,-,N/A,,Mostly Cloudy,240,2012-10-05 06:17:00
2:35 AM,55.4,46.4,72,30.02,10.0,WSW,10.4,-,N/A,,Scattered Clouds,250,2012-10-05 06:35:00
2:56 AM,53.6,46.4,77,30.02,10.0,WSW,10.4,-,N/A,,Clear,250,2012-10-05 06:56:00
3:15 AM,53.6,44.6,72,30.01,10.0,West,8.1,-,N/A,,Clear,270,2012-10-05 07:15:00
3:35 AM,51.8,44.6,76,30.02,10.0,West,8.1,-,N/A,,Clear,260,2012-10-05 07:35:00
3:55 AM,53.6,42.8,67,30.02,10.0,West,6.9,-,N/A,,Clear,280,2012-10-05 07:55:00
4:15 AM,51.8,42.8,71,30.03,10.0,West,8.1,-,N/A,,Clear,280,2012-10-05 08:15:00
4:35 AM,51.8,41.0,67,30.04,10.0,West,8.1,-,N/A,,Clear,270,2012-10-05 08:35:00
4:55 AM,50.0,41.0,71,30.05,10.0,West,9.2,-,N/A,,Clear,270,2012-10-05 08:55:00
5:15 AM,50.0,41.0,71,30.06,10.0,West,10.4,-,N/A,,Clear,270,2012-10-05 09:15:00
5:35 AM,50.0,41.0,71,30.05,10.0,West,10.4,-,N/A,,Clear,270,2012-10-05 09:35:00
5:55 AM,50.0,41.0,71,30.05,10.0,West,9.2,-,N/A,,Clear,270,2012-10-05 09:55:00
6:15 AM,50.0,39.2,66,30.05,10.0,West,9.2,-,N/A,,Clear,280,2012-10-05 10:15:00
6:35 AM,48.2,39.2,71,30.05,10.0,WNW,8.1,-,N/A,,Clear,290,2012-10-05 10:35:00
7:00 AM,48.2,39.2,71,30.04,10.0,West,5.8,-,N/A,,Clear,260,2012-10-05 11:00:00
7:16 AM,46.4,39.2,76,30.05,10.0,WSW,5.8,-,N/A,,Clear,250,2012-10-05 11:16:00
7:35 AM,46.4,39.2,76,30.05,10.0,West,5.8,-,N/A,,Mostly Cloudy,260,2012-10-05 11:35:00
7:58 AM,42.8,39.2,87,30.06,10.0,WSW,6.9,-,N/A,,Scattered Clouds,240,2012-10-05 11:58:00
8:16 AM,44.6,39.2,81,30.06,10.0,WSW,8.1,-,N/A,,Mostly Cloudy,250,2012-10-05 12:16:00
8:35 AM,44.6,41.0,87,30.05,10.0,West,4.6,-,N/A,,Mostly Cloudy,260,2012-10-05 12:35:00
8:55 AM,46.4,41.0,81,30.06,10.0,WSW,6.9,-,N/A,,Scattered Clouds,250,2012-10-05 12:55:00
9:15 AM,48.2,41.0,76,30.06,10.0,WSW,9.2,-,N/A,,Clear,250,2012-10-05 13:15:00
9:35 AM,48.2,39.2,71,30.06,10.0,West,9.2,-,N/A,,Mostly Cloudy,260,2012-10-05 13:35:00
9:55 AM,48.2,39.2,71,30.06,10.0,West,10.4,-,N/A,,Overcast,260,2012-10-05 13:55:00
10:15 AM,50.0,39.2,66,30.06,10.0,West,15.0,18.4,N/A,,Overcast,270,2012-10-05 14:15:00
10:35 AM,50.0,37.4,62,30.06,10.0,West,15.0,19.6,N/A,,Scattered Clouds,280,2012-10-05 14:35:00
10:56 AM,50.0,39.2,66,30.05,10.0,West,11.5,-,N/A,,Scattered Clouds,280,2012-10-05 14:56:00
11:17 AM,51.8,39.2,62,30.05,10.0,West,12.7,-,N/A,,Clear,260,2012-10-05 15:17:00
11:31 AM,52.0,38.8,61,30.05,10.0,West,9.2,-,N/A,,Scattered Clouds,280,2012-10-05 15:31:00
11:34 AM,52.0,38.8,61,30.05,10.0,West,10.4,-,N/A,,Scattered Clouds,270,2012-10-05 15:34:00
11:54 AM,52.7,38.5,58,30.04,10.0,WSW,11.5,17.3,N/A,,Mostly Cloudy,240,2012-10-05 15:54:00
12:34 PM,53.8,37.9,55,30.04,10.0,West,15.0,-,N/A,,Clear,260,2012-10-05 16:34:00
12:54 PM,55.2,38.1,53,30.03,10.0,WSW,15.0,18.4,N/A,,Scattered Clouds,240,2012-10-05 16:54:00
1:14 PM,56.1,37.4,49,30.02,10.0,West,13.8,-,N/A,,Scattered Clouds,260,2012-10-05 17:14:00
1:34 PM,56.3,36.3,47,30.02,10.0,West,16.1,-,N/A,,Scattered Clouds,260,2012-10-05 17:34:00
1:54 PM,55.6,37.0,50,30.02,10.0,WSW,12.7,19.6,N/A,,Scattered Clouds,250,2012-10-05 17:54:00
2:34 PM,54.5,35.8,49,30.01,10.0,WSW,17.3,23.0,N/A,,Clear,240,2012-10-05 18:34:00
2:54 PM,56.1,36.7,48,30.00,10.0,WSW,17.3,21.9,N/A,,Scattered Clouds,250,2012-10-05 18:54:00
3:14 PM,54.5,36.1,50,30.01,10.0,WSW,17.3,-,N/A,,Scattered Clouds,240,2012-10-05 19:14:00
3:34 PM,53.8,35.6,50,30.00,10.0,WSW,10.4,-,N/A,,Clear,250,2012-10-05 19:34:00
3:54 PM,53.2,36.7,53,29.99,10.0,WSW,12.7,-,N/A,,Scattered Clouds,250,2012-10-05 19:54:00
4:14 PM,53.6,36.7,53,29.98,10.0,WSW,11.5,18.4,N/A,,Scattered Clouds,250,2012-10-05 20:14:00
4:34 PM,52.7,36.9,55,29.98,10.0,West,15.0,20.7,N/A,,Scattered Clouds,270,2012-10-05 20:34:00
4:54 PM,52.3,37.2,56,29.97,10.0,WSW,11.5,19.6,N/A,,Mostly Cloudy,250,2012-10-05 20:54:00
5:14 PM,51.8,36.9,57,29.98,10.0,West,13.8,-,N/A,,Overcast,260,2012-10-05 21:14:00
5:34 PM,51.8,36.9,57,29.98,10.0,WSW,17.3,23.0,N/A,,Mostly Cloudy,250,2012-10-05 21:34:00
5:54 PM,51.1,36.7,58,29.98,10.0,West,16.1,19.6,N/A,,Overcast,260,2012-10-05 21:54:00
6:14 PM,50.4,36.7,59,29.99,10.0,West,10.4,17.3,N/A,,Overcast,270,2012-10-05 22:14:00
6:34 PM,50.0,36.7,60,29.99,10.0,WSW,13.8,17.3,N/A,,Overcast,250,2012-10-05 22:34:00
6:54 PM,49.8,36.9,61,29.98,10.0,West,9.2,-,N/A,,Overcast,260,2012-10-05 22:54:00
7:14 PM,49.6,37.6,63,29.97,10.0,SW,5.8,-,N/A,,Overcast,230,2012-10-05 23:14:00
7:34 PM,49.3,38.5,66,29.98,10.0,WSW,9.2,-,N/A,,Overcast,240,2012-10-05 23:34:00
7:54 PM,49.1,37.9,65,29.98,10.0,SW,9.2,-,N/A,,Overcast,230,2012-10-05 23:54:00
8:14 PM,49.1,37.9,65,29.98,10.0,SW,9.2,-,N/A,,Overcast,230,2012-10-06 00:14:00
8:34 PM,48.7,38.3,67,29.97,10.0,WSW,9.2,-,N/A,,Overcast,240,2012-10-06 00:34:00
8:54 PM,48.6,38.3,68,29.97,10.0,SW,9.2,-,N/A,,Overcast,230,2012-10-06 00:54:00
9:14 PM,48.4,38.3,68,29.97,10.0,SW,11.5,-,N/A,,Overcast,230,2012-10-06 01:14:00
9:34 PM,48.2,38.3,69,29.96,10.0,SW,9.2,-,N/A,,Overcast,230,2012-10-06 01:34:00
9:54 PM,47.8,39.2,72,29.95,10.0,SW,9.2,-,N/A,,Overcast,230,2012-10-06 01:54:00
10:14 PM,47.7,39.9,75,29.95,10.0,SW,8.1,-,N/A,,Overcast,230,2012-10-06 02:14:00
10:34 PM,47.3,40.1,76,29.95,10.0,WSW,6.9,-,N/A,,Overcast,240,2012-10-06 02:34:00
10:54 PM,47.5,39.7,75,29.95,10.0,WSW,12.7,-,N/A,,Overcast,250,2012-10-06 02:54:00
11:34 PM,47.3,40.1,76,29.95,10.0,West,6.9,-,N/A,,Overcast,260,2012-10-06 03:34:00
11:54 PM,47.3,39.4,74,29.95,10.0,West,5.8,-,N/A,,Overcast,270,2012-10-06 03:54:00